This is the latest recevied weather packets stored in our database for station/object W4BOD. If no packets are shown the sender has not sent any weather packets the latest 10 day(s).
| Time | Temp. | Humidity | Pressure | Rain* | Wind** | Luminosity | Snow |
|---|---|---|---|---|---|---|---|
| 1788136518 | 30° C | 71% | 1017.7 hPa | 0 mm | - | 0 W/m² | - |
| 1788136214 | 30° C | 71% | 1017.7 hPa | 0 mm | - | 0 W/m² | - |
| 1788135912 | 30° C | 71% | 1017.8 hPa | 0 mm | - | 1 W/m² | - |
| 1788135608 | 30.56° C | 69% | 1017.6 hPa | 0 mm | - | 1 W/m² | - |
| 1788135303 | 30.56° C | 69% | 1017.8 hPa | 0 mm | - | 2 W/m² | - |
| 1788135000 | 30.56° C | 69% | 1017.6 hPa | 0 mm | - | 3 W/m² | - |
| 1788134695 | 31.11° C | 69% | 1017.6 hPa | 0 mm | - | 4 W/m² | - |
| 1788134393 | 31.11° C | 70% | 1017.6 hPa | 0 mm | - | 5 W/m² | - |
| 1788134088 | 31.67° C | 68% | 1017.5 hPa | 0 mm | - | 6 W/m² | - |
| 1788133784 | 31.11° C | 66% | 1017.7 hPa | 0 mm | - | 8 W/m² | - |
| 1788133478 | 30.56° C | 70% | 1017.7 hPa | 0 mm | - | 9 W/m² | - |
| 1788133174 | 31.67° C | 66% | 1017.5 hPa | 0 mm | - | 13 W/m² | - |
| 1788132870 | 31.11° C | 64% | 1017.6 hPa | 0 mm | - | 17 W/m² | - |
| 1788132565 | 31.11° C | 71% | 1017.5 hPa | 0 mm | - | 19 W/m² | - |
| 1788132261 | 31.11° C | 72% | 1017.5 hPa | 0 mm | - | 19 W/m² | - |
| 1788131958 | 31.67° C | 74% | 1017.5 hPa | 0 mm | - | 23 W/m² | - |
| 1788131652 | 32.22° C | 69% | 1017.6 hPa | 0 mm | - | 29 W/m² | - |
| 1788131352 | 32.22° C | 70% | 1017.4 hPa | 0 mm | - | 31 W/m² | - |
| 1788131047 | 32.78° C | 69% | 1017.5 hPa | 0 mm | - | 31 W/m² | - |
| 1788130746 | 32.78° C | 69% | 1017.5 hPa | 0 mm | - | 40 W/m² | - |
| 1788130442 | 33.33° C | 65% | 1017.5 hPa | 0 mm | - | 49 W/m² | - |
| 1788130137 | 33.89° C | 66% | 1017.5 hPa | 0 mm | - | 58 W/m² | - |
| 1788129835 | 34.44° C | 60% | 1017.5 hPa | 0 mm | - | 68 W/m² | - |
| 1788129533 | 34.44° C | 58% | 1017.4 hPa | 0 mm | - | 87 W/m² | - |
| 1788129229 | 34.44° C | 59% | 1017.4 hPa | 0 mm | - | 123 W/m² | - |
* Rain latest hour (hover to see other rain measurements)
** Current wind speed in m/s (hover to see current wind gust speed)